Location: Chiroubles
(46.1812°N, 4.6660°E)
Time: 18:05:51
(UTC+00:00)

Vanguard 1 Rocket - All Passes

Search period start: 04 December 2020 00:00
Search period end: 14 December 2020 00:00
Orbit: 656 x 4221 km, 34.3° (Epoch: 03 December)

Date Brightness Start Highest point End Pass type
(mag) Time Alt. Az. Time Alt. Az. Time Alt. Az.
04 Dec - 01:45:49 10° WSW 02:11:07 60° S 02:28:44 10° ESE visible
04 Dec - 04:18:30 10° W 04:40:13 47° SSW 04:53:11 10° SE visible
04 Dec - 06:54:32 10° W 07:05:10 19° SW 07:12:46 10° SSW daylight
04 Dec - 19:49:15 10° SSE 19:59:17 15° ESE 20:10:13 10° E visible
04 Dec - 22:05:37 10° SSW 22:26:19 40° SE 22:47:42 10° E visible
05 Dec - 00:31:50 10° WSW 00:56:45 58° S 01:16:48 10° E visible
05 Dec - 03:02:56 10° W 03:27:15 55° SSW 03:42:43 10° SE visible
05 Dec - 05:37:08 10° W 05:54:11 31° SW 06:04:58 10° SSE visible
05 Dec - 20:55:37 10° S 21:13:04 30° SE 21:32:44 10° E visible
05 Dec - 23:18:54 10° SW 23:42:15 53° SSE 00:04:06 10° E visible
06 Dec - 01:48:02 10° WSW 02:13:23 60° S 02:31:29 10° ESE visible
06 Dec - 04:20:51 10° W 04:42:18 43° SSW 04:55:37 10° SSE visible
06 Dec - 06:58:35 10° W 07:06:53 15° WSW 07:13:23 10° SSW daylight
06 Dec - 19:47:50 10° SSE 20:00:40 19° SE 20:15:29 10° E visible
06 Dec - 22:07:08 10° SSW 22:28:05 45° SSE 22:50:32 10° E visible
07 Dec - 00:33:59 10° WSW 00:58:55 60° S 01:19:32 10° ESE visible
07 Dec - 03:05:14 10° W 03:29:25 53° SSW 03:45:18 10° SE visible
07 Dec - 05:39:57 10° W 05:56:00 27° SW 06:06:45 10° S visible
07 Dec - 20:56:40 10° SSW 21:14:38 35° SE 21:35:51 10° E visible
07 Dec - 23:20:56 10° SW 23:44:16 57° SSE 00:06:49 10° E visible
08 Dec - 01:50:20 10° W 02:15:35 59° S 02:34:09 10° ESE visible
08 Dec - 04:23:18 10° W 04:44:15 39° SW 04:57:50 10° SSE visible
08 Dec - 07:04:41 10° WSW 07:08:28 11° WSW 07:11:52 10° SW daylight
08 Dec - 19:47:52 10° S 20:02:05 24° SE 20:19:28 10° E visible
08 Dec - 22:08:58 10° SW 22:29:55 50° SSE 22:53:15 10° E visible
09 Dec - 00:36:16 10° WSW 01:01:06 61° S 01:22:13 10° ESE visible
09 Dec - 03:07:36 10° W 03:31:29 49° SSW 03:47:44 10° SE visible
09 Dec - 05:43:05 10° W 05:57:40 22° SW 06:08:06 10° S visible
09 Dec - 18:42:42 10° SE 18:50:25 13° ESE 18:59:13 10° E visible
09 Dec - 20:58:10 10° SSW 21:16:16 40° SE 21:38:41 10° E visible
09 Dec - 23:23:09 10° WSW 23:46:20 59° S 00:09:27 10° E visible
10 Dec - 01:52:42 10° W 02:17:44 57° SSW 02:36:42 10° ESE visible
10 Dec - 04:25:53 10° W 04:46:02 34° SW 04:59:47 10° SSE visible
10 Dec - 19:48:42 10° S 20:03:33 29° SE 20:22:48 10° E visible
10 Dec - 22:11:02 10° SW 22:31:49 53° SSE 22:55:52 10° E visible
11 Dec - 00:38:40 10° WSW 01:03:15 61° S 01:24:48 10° ESE visible
11 Dec - 03:10:03 10° W 03:33:25 45° SSW 03:49:58 10° SE visible
11 Dec - 05:46:49 10° W 05:59:12 18° SW 06:08:45 10° SSW visible
11 Dec - 18:41:29 10° SSE 18:51:47 18° SE 19:04:36 10° E visible
11 Dec - 20:59:58 10° SSW 21:18:00 45° SSE 21:41:21 10° E visible
11 Dec - 23:25:31 10° WSW 23:48:26 61° S 00:12:02 10° ESE visible
12 Dec - 01:55:09 10° W 02:19:47 54° SSW 02:39:07 10° SE visible
12 Dec - 04:28:42 10° W 04:47:41 30° SW 05:01:23 10° S visible
12 Dec - 19:50:04 10° SSW 20:05:07 34° SE 20:25:44 10° E visible
12 Dec - 22:13:19 10° SW 22:33:49 57° SSE 22:58:24 10° E visible
13 Dec - 00:41:08 10° W 01:05:22 60° S 01:27:17 10° ESE visible
13 Dec - 03:12:35 10° W 03:35:12 41° SW 03:51:59 10° SSE visible
13 Dec - 05:51:45 10° W 06:00:38 14° WSW 06:08:09 10° SW visible
13 Dec - 18:41:47 10° S 18:53:14 22° SE 19:08:33 10° E visible
13 Dec - 21:02:03 10° SW 21:19:51 49° SSE 21:43:53 10° E visible
